Time,TemperatureF,DewpointF,PressureIn,WindDirection,WindDirectionDegrees,WindSpeedMPH,WindSpeedGustMPH,Humidity,HourlyPrecipIn,Conditions,Clouds,dailyrainin,SolarRadiationWatts/m^2,SoftwareType,DateUTC
2013-01-20 00:00:00,41.2,28.8,29.87,NNW,333,1.0,8.0,61,0.00,,---,0.06,0.00,VWS V14.01,2013-01-20 05:00:00,
2013-01-20 00:01:00,41.3,28.9,29.87,WNW,282,8.0,8.0,61,0.00,,---,0.00,0.00,VWS V14.01,2013-01-20 05:01:00,
2013-01-20 00:03:00,41.3,28.9,29.87,WSW,237,2.0,8.0,61,0.00,,---,0.00,0.00,VWS V14.01,2013-01-20 05:03:00,
2013-01-20 00:08:00,41.4,29.0,29.87,West,263,0.0,8.0,61,0.00,,---,0.00,0.00,VWS V14.01,2013-01-20 05:08:00,
2013-01-20 00:13:00,41.3,29.3,29.86,WSW,245,4.0,8.0,62,0.00,,---,0.00,0.00,VWS V14.01,2013-01-20 05:13:00,
2013-01-20 00:18:00,41.3,29.3,29.85,West,263,0.0,8.0,62,0.00,,---,0.00,0.00,VWS V14.01,2013-01-20 05:18:00,
2013-01-20 00:23:00,41.2,29.2,29.85,WSW,254,2.0,8.0,62,0.00,,---,0.00,0.00,VWS V14.01,2013-01-20 05:23:00,
2013-01-20 00:28:00,41.1,29.1,29.85,WSW,245,3.0,8.0,62,0.00,,---,0.00,0.00,VWS V14.01,2013-01-20 05:28:00,
2013-01-20 00:30:00,41.1,29.1,29.85,WNW,283,4.0,8.0,62,0.00,,---,0.00,0.00,VWS V14.01,2013-01-20 05:30:00,
2013-01-20 00:33:00,41.1,29.1,29.85,SW,233,1.0,7.0,62,0.00,,---,0.00,0.00,VWS V14.01,2013-01-20 05:33:00,
2013-01-20 00:38:00,41.2,29.2,29.85,WNW,290,4.0,7.0,62,0.00,,---,0.00,0.00,VWS V14.01,2013-01-20 05:38:00,
2013-01-20 00:43:00,41.2,29.2,29.84,West,265,0.0,7.0,62,0.00,,---,0.00,0.00,VWS V14.01,2013-01-20 05:43:00,
2013-01-20 00:48:00,41.2,29.6,29.84,West,266,1.0,7.0,63,0.00,,---,0.00,0.00,VWS V14.01,2013-01-20 05:48:00,
2013-01-20 00:53:00,41.2,29.6,29.84,West,267,0.0,7.0,63,0.00,,---,0.00,0.00,VWS V14.01,2013-01-20 05:53:00,
2013-01-20 00:58:00,41.1,29.5,29.83,WNW,289,4.0,7.0,63,0.00,,---,0.00,0.00,VWS V14.01,2013-01-20 05:58:00,
2013-01-20 01:00:00,41.0,29.4,29.83,WSW,248,2.0,7.0,63,0.00,,---,0.00,0.00,VWS V14.01,2013-01-20 06:00:00,
2013-01-20 01:03:00,40.9,29.3,29.83,West,265,3.0,3.0,63,0.00,,---,0.00,0.00,VWS V14.01,2013-01-20 06:03:00,
2013-01-20 01:08:00,40.8,29.2,29.83,WNW,296,0.0,4.0,63,0.00,,---,0.00,0.00,VWS V14.01,2013-01-20 06:08:00,
2013-01-20 01:13:00,40.7,29.5,29.82,West,279,0.0,5.0,64,0.00,,---,0.00,0.00,VWS V14.01,2013-01-20 06:13:00,
2013-01-20 01:18:00,40.7,29.5,29.82,South,190,0.0,5.0,64,0.00,,---,0.00,0.00,VWS V14.01,2013-01-20 06:18:00,
2013-01-20 01:23:00,40.6,29.4,29.82,WNW,300,0.0,5.0,64,0.00,,---,0.00,0.00,VWS V14.01,2013-01-20 06:23:00,
2013-01-20 01:28:00,40.6,29.4,29.82,WSW,250,7.0,7.0,64,0.00,,---,0.00,0.00,VWS V14.01,2013-01-20 06:28:00,
2013-01-20 01:30:00,40.5,29.3,29.82,WSW,250,0.0,7.0,64,0.00,,---,0.00,0.00,VWS V14.01,2013-01-20 06:30:00,
2013-01-20 01:33:00,40.5,29.3,29.81,SW,236,0.0,5.0,64,0.00,,---,0.00,0.00,VWS V14.01,2013-01-20 06:33:00,
2013-01-20 01:38:00,40.5,29.7,29.81,WSW,252,2.0,6.0,65,0.00,,---,0.00,0.00,VWS V14.01,2013-01-20 06:38:00,
2013-01-20 01:43:00,40.4,29.6,29.81,WNW,286,0.0,6.0,65,0.00,,---,0.00,0.00,VWS V14.01,2013-01-20 06:43:00,
2013-01-20 01:48:00,40.3,29.5,29.81,West,279,2.0,6.0,65,0.00,,---,0.00,0.00,VWS V14.01,2013-01-20 06:48:00,
2013-01-20 01:53:00,40.2,29.4,29.81,West,277,2.0,6.0,65,0.00,,---,0.00,0.00,VWS V14.01,2013-01-20 06:53:00,
2013-01-20 01:58:00,40.0,29.6,29.82,West,277,0.0,6.0,66,0.00,,---,0.00,0.00,VWS V14.01,2013-01-20 06:58:00,
2013-01-20 02:00:00,39.9,29.5,29.82,WNW,282,3.0,6.0,66,0.00,,---,0.00,0.00,VWS V14.01,2013-01-20 07:00:00,
2013-01-20 02:03:00,39.8,29.4,29.82,WSW,246,2.0,4.0,66,0.00,,---,0.00,0.00,VWS V14.01,2013-01-20 07:03:00,
2013-01-20 02:08:00,39.7,29.3,29.82,WSW,246,0.0,4.0,66,0.00,,---,0.00,0.00,VWS V14.01,2013-01-20 07:08:00,
2013-01-20 02:13:00,39.5,29.5,29.82,WSW,246,0.0,4.0,67,0.00,,---,0.00,0.00,VWS V14.01,2013-01-20 07:13:00,
2013-01-20 02:18:00,39.3,29.3,29.82,West,271,0.0,4.0,67,0.00,,---,0.00,0.00,VWS V14.01,2013-01-20 07:18:00,
2013-01-20 02:23:00,39.1,29.1,29.82,West,271,0.0,4.0,67,0.00,,---,0.00,0.00,VWS V14.01,2013-01-20 07:23:00,
2013-01-20 02:28:00,39.0,29.0,29.82,West,271,0.0,4.0,67,0.00,,---,0.00,0.00,VWS V14.01,2013-01-20 07:28:00,
2013-01-20 02:30:00,39.0,29.0,29.82,West,271,0.0,4.0,67,0.00,,---,0.00,0.00,VWS V14.01,2013-01-20 07:30:00,
2013-01-20 02:33:00,38.9,29.2,29.81,West,271,0.0,2.0,68,0.00,,---,0.00,0.00,VWS V14.01,2013-01-20 07:33:00,
2013-01-20 02:38:00,38.6,29.0,29.81,West,271,0.0,2.0,68,0.00,,---,0.00,0.00,VWS V14.01,2013-01-20 07:38:00,
2013-01-20 02:43:00,38.3,29.0,29.81,SSE,161,0.0,2.0,69,0.00,,---,0.00,0.00,VWS V14.01,2013-01-20 07:43:00,
2013-01-20 02:48:00,38.1,28.8,29.81,West,268,1.0,2.0,69,0.00,,---,0.00,0.00,VWS V14.01,2013-01-20 07:48:00,
2013-01-20 02:53:00,38.0,29.1,29.80,SE,146,0.0,3.0,70,0.00,,---,0.00,0.00,VWS V14.01,2013-01-20 07:53:00,
2013-01-20 02:58:00,37.9,29.0,29.80,West,271,0.0,3.0,70,0.00,,---,0.00,0.00,VWS V14.01,2013-01-20 07:58:00,
2013-01-20 03:00:00,37.9,29.0,29.80,West,271,2.0,3.0,70,0.00,,---,0.00,0.00,VWS V14.01,2013-01-20 08:00:00,
2013-01-20 03:03:00,37.8,28.9,29.80,West,271,0.0,2.0,70,0.00,,---,0.00,0.00,VWS V14.01,2013-01-20 08:03:00,
2013-01-20 03:08:00,37.9,29.0,29.79,North,11,0.0,3.0,70,0.00,,---,0.00,0.00,VWS V14.01,2013-01-20 08:08:00,
2013-01-20 03:13:00,38.0,29.1,29.79,SW,229,0.0,4.0,70,0.00,,---,0.00,0.00,VWS V14.01,2013-01-20 08:13:00,
2013-01-20 03:18:00,38.1,29.2,29.79,West,265,0.0,4.0,70,0.00,,---,0.00,0.00,VWS V14.01,2013-01-20 08:18:00,
2013-01-20 03:23:00,38.3,29.0,29.78,SSW,203,0.0,4.0,69,0.00,,---,0.00,0.00,VWS V14.01,2013-01-20 08:23:00,
2013-01-20 03:28:00,38.4,29.1,29.78,SW,230,3.0,5.0,69,0.00,,---,0.00,0.00,VWS V14.01,2013-01-20 08:28:00,
2013-01-20 03:30:00,38.4,29.1,29.78,WSW,244,0.0,5.0,69,0.00,,---,0.00,0.00,VWS V14.01,2013-01-20 08:30:00,
2013-01-20 03:33:00,38.5,29.2,29.77,WSW,239,0.0,3.0,69,0.00,,---,0.00,0.00,VWS V14.01,2013-01-20 08:33:00,
2013-01-20 03:38:00,38.3,29.0,29.78,WNW,288,3.0,5.0,69,0.00,,---,0.00,0.00,VWS V14.01,2013-01-20 08:38:00,
2013-01-20 03:43:00,38.4,29.1,29.77,WSW,244,2.0,5.0,69,0.00,,---,0.00,0.00,VWS V14.01,2013-01-20 08:43:00,
2013-01-20 03:48:00,38.3,29.0,29.77,WSW,248,2.0,5.0,69,0.00,,---,0.00,0.00,VWS V14.01,2013-01-20 08:48:00,
2013-01-20 03:53:00,38.2,29.3,29.76,SW,236,0.0,5.0,70,0.00,,---,0.00,0.00,VWS V14.01,2013-01-20 08:53:00,
2013-01-20 03:58:00,38.2,29.3,29.76,SW,225,0.0,6.0,70,0.00,,---,0.00,0.00,VWS V14.01,2013-01-20 08:58:00,
2013-01-20 04:00:00,38.2,29.3,29.76,SW,225,2.0,6.0,70,0.00,,---,0.00,0.00,VWS V14.01,2013-01-20 09:00:00,
2013-01-20 04:03:00,38.1,29.2,29.76,West,263,0.0,2.0,70,0.00,,---,0.00,0.00,VWS V14.01,2013-01-20 09:03:00,
2013-01-20 04:08:00,38.0,29.1,29.75,SW,236,0.0,3.0,70,0.00,,---,0.00,0.00,VWS V14.01,2013-01-20 09:08:00,
2013-01-20 04:13:00,38.0,29.1,29.75,SW,231,4.0,6.0,70,0.00,,---,0.00,0.00,VWS V14.01,2013-01-20 09:13:00,
2013-01-20 04:18:00,38.0,29.1,29.74,West,281,0.0,6.0,70,0.00,,---,0.00,0.00,VWS V14.01,2013-01-20 09:18:00,
2013-01-20 04:23:00,38.0,29.1,29.74,WSW,257,0.0,6.0,70,0.00,,---,0.00,0.00,VWS V14.01,2013-01-20 09:23:00,
2013-01-20 04:28:00,38.0,29.1,29.73,SW,235,0.0,6.0,70,0.00,,---,0.00,0.00,VWS V14.01,2013-01-20 09:28:00,
2013-01-20 04:30:00,37.9,29.0,29.73,SW,235,0.0,6.0,70,0.00,,---,0.00,0.00,VWS V14.01,2013-01-20 09:30:00,
2013-01-20 04:33:00,37.9,29.0,29.73,WNW,291,0.0,5.0,70,0.00,,---,0.00,0.00,VWS V14.01,2013-01-20 09:33:00,
2013-01-20 04:38:00,37.9,29.0,29.73,SSW,211,0.0,5.0,70,0.00,,---,0.00,0.00,VWS V14.01,2013-01-20 09:38:00,
2013-01-20 04:43:00,37.9,29.4,29.72,WSW,249,1.0,5.0,71,0.00,,---,0.00,0.00,VWS V14.01,2013-01-20 09:43:00,
2013-01-20 04:48:00,37.7,29.2,29.72,SW,219,0.0,5.0,71,0.00,,---,0.00,0.00,VWS V14.01,2013-01-20 09:48:00,
2013-01-20 04:53:00,37.7,29.2,29.71,SW,230,2.0,5.0,71,0.00,,---,0.00,0.00,VWS V14.01,2013-01-20 09:53:00,
2013-01-20 04:58:00,37.7,29.2,29.71,WSW,237,0.0,5.0,71,0.00,,---,0.00,0.00,VWS V14.01,2013-01-20 09:58:00,
2013-01-20 05:00:00,37.6,29.1,29.71,NNW,333,0.0,5.0,71,0.00,,---,0.00,0.00,VWS V14.01,2013-01-20 10:00:00,
2013-01-20 05:03:00,37.6,29.1,29.71,West,279,1.0,5.0,71,0.00,,---,0.00,0.00,VWS V14.01,2013-01-20 10:03:00,
2013-01-20 05:08:00,37.5,29.0,29.71,West,259,1.0,5.0,71,0.00,,---,0.00,0.00,VWS V14.01,2013-01-20 10:08:00,
2013-01-20 05:13:00,37.5,29.0,29.70,West,259,0.0,6.0,71,0.00,,---,0.00,0.00,VWS V14.01,2013-01-20 10:13:00,
2013-01-20 05:18:00,37.3,29.1,29.70,West,269,0.0,6.0,72,0.00,,---,0.00,0.00,VWS V14.01,2013-01-20 10:18:00,
2013-01-20 05:23:00,37.3,29.1,29.70,West,269,0.0,6.0,72,0.00,,---,0.00,0.00,VWS V14.01,2013-01-20 10:23:00,
2013-01-20 05:28:00,37.2,29.0,29.70,West,274,1.0,6.0,72,0.00,,---,0.00,0.00,VWS V14.01,2013-01-20 10:28:00,
2013-01-20 05:30:00,37.1,28.9,29.70,West,275,1.0,6.0,72,0.00,,---,0.00,0.00,VWS V14.01,2013-01-20 10:30:00,
2013-01-20 05:33:00,37.1,28.9,29.70,WNW,288,2.0,3.0,72,0.00,,---,0.00,0.00,VWS V14.01,2013-01-20 10:33:00,
2013-01-20 05:38:00,37.1,28.9,29.70,WSW,240,0.0,6.0,72,0.00,,---,0.00,0.00,VWS V14.01,2013-01-20 10:38:00,
2013-01-20 05:43:00,37.3,29.1,29.69,WSW,256,0.0,6.0,72,0.00,,---,0.00,0.00,VWS V14.01,2013-01-20 10:43:00,
2013-01-20 05:48:00,37.2,29.0,29.69,WSW,256,0.0,6.0,72,0.00,,---,0.00,0.00,VWS V14.01,2013-01-20 10:48:00,
2013-01-20 05:53:00,37.1,28.9,29.69,WSW,256,1.0,6.0,72,0.00,,---,0.00,0.00,VWS V14.01,2013-01-20 10:53:00,
2013-01-20 05:58:00,37.1,28.9,29.68,NNW,348,0.0,7.0,72,0.00,,---,0.00,0.00,VWS V14.01,2013-01-20 10:58:00,
2013-01-20 06:00:00,37.1,28.9,29.68,West,272,0.0,7.0,72,0.00,,---,0.00,0.00,VWS V14.01,2013-01-20 11:00:00,
2013-01-20 06:03:00,37.0,28.8,29.68,West,272,0.0,2.0,72,0.00,,---,0.00,0.00,VWS V14.01,2013-01-20 11:03:00,
2013-01-20 06:08:00,37.1,28.9,29.68,West,280,0.0,5.0,72,0.00,,---,0.00,0.00,VWS V14.01,2013-01-20 11:08:00,
2013-01-20 06:13:00,37.2,28.7,29.67,SSW,202,0.0,6.0,71,0.00,,---,0.00,0.00,VWS V14.01,2013-01-20 11:13:00,
2013-01-20 06:18:00,37.2,28.7,29.67,SW,222,3.0,6.0,71,0.00,,---,0.00,0.00,VWS V14.01,2013-01-20 11:18:00,
2013-01-20 06:23:00,37.3,28.8,29.67,WNW,286,0.0,6.0,71,0.00,,---,0.00,0.00,VWS V14.01,2013-01-20 11:23:00,
2013-01-20 06:28:00,37.3,28.8,29.67,SW,235,3.0,7.0,71,0.00,,---,0.00,0.00,VWS V14.01,2013-01-20 11:28:00,
2013-01-20 06:30:00,37.3,28.8,29.67,West,275,2.0,7.0,71,0.00,,---,0.00,0.00,VWS V14.01,2013-01-20 11:30:00,
2013-01-20 06:33:00,37.4,28.9,29.67,SSW,212,1.0,5.0,71,0.00,,---,0.00,0.00,VWS V14.01,2013-01-20 11:33:00,
2013-01-20 06:38:00,37.4,28.9,29.66,SW,236,4.0,7.0,71,0.00,,---,0.00,0.00,VWS V14.01,2013-01-20 11:38:00,
2013-01-20 06:43:00,37.5,29.0,29.67,WSW,237,0.0,7.0,71,0.00,,---,0.00,0.00,VWS V14.01,2013-01-20 11:43:00,
2013-01-20 07:00:00,37.4,28.9,29.67,West,270,2.0,7.0,71,0.00,,---,0.00,0.00,VWS V14.01,2013-01-20 12:00:00,
2013-01-20 07:48:00,37.4,28.9,29.67,West,270,2.0,7.0,71,0.00,,---,0.00,0.00,VWS V14.01,2013-01-20 12:48:00,
2013-01-20 07:53:00,37.9,29.0,29.67,West,273,3.0,5.0,70,0.00,,---,0.00,26.00,VWS V14.01,2013-01-20 12:53:00,
2013-01-20 07:58:00,38.1,28.8,29.68,WSW,255,2.0,6.0,69,0.00,,---,0.00,30.00,VWS V14.01,2013-01-20 12:58:00,
2013-01-20 08:00:00,41.0,29.8,29.67,West,271,0.0,9.0,64,0.00,,---,0.00,264.00,VWS V14.01,2013-01-20 13:00:00,
2013-01-20 08:03:00,38.3,29.0,29.69,WNW,283,6.0,7.0,69,0.00,,---,0.00,39.00,VWS V14.01,2013-01-20 13:03:00,
2013-01-20 08:13:00,38.9,29.2,29.68,WSW,256,0.0,0.0,68,0.00,,---,0.00,91.00,VWS V14.01,2013-01-20 13:13:00,
2013-01-20 08:18:00,39.2,29.2,29.68,SE,136,0.0,7.0,67,0.00,,---,0.00,98.00,VWS V14.01,2013-01-20 13:18:00,
2013-01-20 08:23:00,39.5,29.5,29.68,SSW,207,3.0,8.0,67,0.00,,---,0.00,137.00,VWS V14.01,2013-01-20 13:23:00,
2013-01-20 08:28:00,39.8,29.4,29.68,SSE,155,0.0,8.0,66,0.00,,---,0.00,167.00,VWS V14.01,2013-01-20 13:28:00,
2013-01-20 08:30:00,40.7,29.1,29.67,SW,234,4.0,10.0,63,0.00,,---,0.00,54.00,VWS V14.01,2013-01-20 13:30:00,
2013-01-20 08:33:00,40.1,29.7,29.68,SSW,211,2.0,3.0,66,0.00,,---,0.00,190.00,VWS V14.01,2013-01-20 13:33:00,
2013-01-20 08:38:00,40.4,30.0,29.68,West,274,2.0,4.0,66,0.00,,---,0.00,199.00,VWS V14.01,2013-01-20 13:38:00,
2013-01-20 08:43:00,40.6,29.8,29.67,SW,221,0.0,6.0,65,0.00,,---,0.00,206.00,VWS V14.01,2013-01-20 13:43:00,
2013-01-20 08:48:00,40.8,29.6,29.68,West,277,0.0,6.0,64,0.00,,---,0.00,202.00,VWS V14.01,2013-01-20 13:48:00,
2013-01-20 08:53:00,40.9,29.7,29.68,West,276,0.0,6.0,64,0.00,,---,0.00,216.00,VWS V14.01,2013-01-20 13:53:00,
2013-01-20 08:58:00,40.9,29.7,29.67,WSW,251,7.0,7.0,64,0.00,,---,0.00,241.00,VWS V14.01,2013-01-20 13:58:00,
2013-01-20 09:00:00,41.7,29.7,29.67,WNW,298,3.0,9.0,62,0.00,,---,0.00,93.00,VWS V14.01,2013-01-20 14:00:00,
2013-01-20 09:03:00,41.2,29.6,29.67,West,265,0.0,10.0,63,0.00,,---,0.00,283.00,VWS V14.01,2013-01-20 14:03:00,
2013-01-20 09:08:00,41.2,29.6,29.67,WSW,248,1.0,10.0,63,0.00,,---,0.00,318.00,VWS V14.01,2013-01-20 14:08:00,
2013-01-20 09:13:00,41.2,29.6,29.68,West,271,4.0,10.0,63,0.00,,---,0.00,132.00,VWS V14.01,2013-01-20 14:13:00,
2013-01-20 09:18:00,41.0,29.4,29.67,SW,236,4.0,10.0,63,0.00,,---,0.00,195.00,VWS V14.01,2013-01-20 14:18:00,
2013-01-20 09:23:00,40.9,29.3,29.67,NNE,28,0.0,10.0,63,0.00,,---,0.00,74.00,VWS V14.01,2013-01-20 14:23:00,
2013-01-20 09:28:00,40.8,29.6,29.67,WSW,253,0.0,10.0,64,0.00,,---,0.00,51.00,VWS V14.01,2013-01-20 14:28:00,
2013-01-20 09:30:00,42.4,29.9,29.66,WSW,237,2.0,7.0,61,0.00,,---,0.00,142.00,VWS V14.01,2013-01-20 14:30:00,
2013-01-20 09:33:00,40.7,29.5,29.67,WSW,240,0.0,5.0,64,0.00,,---,0.00,60.00,VWS V14.01,2013-01-20 14:33:00,
2013-01-20 09:38:00,40.8,29.6,29.67,West,273,2.0,5.0,64,0.00,,---,0.00,77.00,VWS V14.01,2013-01-20 14:38:00,
2013-01-20 09:43:00,41.0,29.8,29.67,West,263,1.0,5.0,64,0.00,,---,0.00,67.00,VWS V14.01,2013-01-20 14:43:00,
2013-01-20 09:48:00,41.2,29.6,29.67,West,261,7.0,7.0,63,0.00,,---,0.00,84.00,VWS V14.01,2013-01-20 14:48:00,
2013-01-20 09:53:00,41.4,29.8,29.67,West,263,1.0,7.0,63,0.00,,---,0.00,104.00,VWS V14.01,2013-01-20 14:53:00,
2013-01-20 09:58:00,41.6,29.6,29.67,WSW,244,0.0,9.0,62,0.00,,---,0.00,100.00,VWS V14.01,2013-01-20 14:58:00,
2013-01-20 10:00:00,44.8,30.5,29.65,West,271,5.0,12.0,57,0.00,,---,0.00,302.00,VWS V14.01,2013-01-20 15:00:00,
2013-01-20 10:03:00,41.8,29.8,29.67,West,266,0.0,6.0,62,0.00,,---,0.00,84.00,VWS V14.01,2013-01-20 15:03:00,
2013-01-20 10:08:00,41.9,29.5,29.67,SSW,203,4.0,7.0,61,0.00,,---,0.00,83.00,VWS V14.01,2013-01-20 15:08:00,
2013-01-20 10:13:00,42.0,29.9,29.67,West,269,0.0,7.0,62,0.00,,---,0.00,93.00,VWS V14.01,2013-01-20 15:13:00,
2013-01-20 10:18:00,42.0,29.9,29.67,WSW,244,5.0,7.0,62,0.00,,---,0.00,83.00,VWS V14.01,2013-01-20 15:18:00,
2013-01-20 10:23:00,42.2,29.7,29.67,SW,226,3.0,7.0,61,0.00,,---,0.00,91.00,VWS V14.01,2013-01-20 15:23:00,
2013-01-20 10:28:00,42.4,29.9,29.66,SW,229,2.0,7.0,61,0.00,,---,0.00,144.00,VWS V14.01,2013-01-20 15:28:00,
2013-01-20 10:30:00,44.3,30.9,29.65,WSW,256,1.0,10.0,59,0.00,,---,0.00,49.00,VWS V14.01,2013-01-20 15:30:00,
2013-01-20 10:33:00,42.5,30.0,29.66,WSW,238,4.0,6.0,61,0.00,,---,0.00,276.00,VWS V14.01,2013-01-20 15:33:00,
2013-01-20 10:38:00,42.9,30.4,29.66,SW,229,2.0,7.0,61,0.00,,---,0.00,197.00,VWS V14.01,2013-01-20 15:38:00,
2013-01-20 10:43:00,43.1,30.2,29.65,WSW,257,4.0,7.0,60,0.00,,---,0.00,188.00,VWS V14.01,2013-01-20 15:43:00,
2013-01-20 10:48:00,43.4,30.0,29.65,West,273,8.0,8.0,59,0.00,,---,0.00,425.00,VWS V14.01,2013-01-20 15:48:00,
2013-01-20 10:53:00,44.2,30.8,29.65,WSW,243,9.0,12.0,59,0.00,,---,0.00,580.00,VWS V14.01,2013-01-20 15:53:00,
2013-01-20 10:58:00,44.8,30.5,29.65,SSW,194,5.0,12.0,57,0.00,,---,0.00,304.00,VWS V14.01,2013-01-20 15:58:00,
2013-01-20 11:00:00,41.8,33.8,29.67,WSW,258,2.0,9.0,73,0.00,,---,0.00,104.00,VWS V14.01,2013-01-20 16:00:00,
2013-01-20 11:03:00,44.8,30.9,29.65,SSW,196,5.0,10.0,58,0.00,,---,0.00,200.00,VWS V14.01,2013-01-20 16:03:00,
2013-01-20 11:08:00,44.6,30.8,29.65,WSW,242,3.0,10.0,58,0.00,,---,0.00,135.00,VWS V14.01,2013-01-20 16:08:00,
2013-01-20 11:13:00,44.5,30.7,29.64,WSW,254,1.0,10.0,58,0.00,,---,0.00,109.00,VWS V14.01,2013-01-20 16:13:00,
2013-01-20 11:18:00,44.3,30.5,29.64,WSW,237,7.0,10.0,58,0.00,,---,0.00,90.00,VWS V14.01,2013-01-20 16:18:00,
2013-01-20 11:23:00,44.3,30.5,29.65,WSW,243,2.0,10.0,58,0.00,,---,0.00,72.00,VWS V14.01,2013-01-20 16:23:00,
2013-01-20 11:28:00,44.3,30.5,29.65,WSW,256,0.0,10.0,58,0.00,,---,0.00,56.00,VWS V14.01,2013-01-20 16:28:00,
2013-01-20 11:30:00,41.1,32.8,29.68,West,269,3.0,8.0,72,0.00,,---,0.00,54.00,VWS V14.01,2013-01-20 16:30:00,
2013-01-20 11:33:00,44.3,30.5,29.65,WNW,285,3.0,4.0,58,0.00,,---,0.00,37.00,VWS V14.01,2013-01-20 16:33:00,
2013-01-20 11:38:00,44.3,30.5,29.66,WNW,289,0.0,5.0,58,0.00,,---,0.00,30.00,VWS V14.01,2013-01-20 16:38:00,
2013-01-20 11:43:00,44.2,31.2,29.67,North,5,0.0,7.0,60,0.00,,---,0.00,32.00,VWS V14.01,2013-01-20 16:43:00,
2013-01-20 11:48:00,43.1,32.5,29.67,North,355,4.0,7.0,66,0.00,,---,0.00,60.00,VWS V14.01,2013-01-20 16:48:00,
2013-01-20 11:53:00,42.2,33.5,29.67,WSW,244,3.0,9.0,71,0.00,,---,0.00,105.00,VWS V14.01,2013-01-20 16:53:00,
2013-01-20 11:58:00,41.9,34.9,29.67,SSW,194,0.0,9.0,76,0.00,,---,0.00,104.00,VWS V14.01,2013-01-20 16:58:00,
2013-01-20 12:00:00,42.1,32.7,29.67,West,264,0.0,7.0,69,0.00,,---,0.00,272.00,VWS V14.01,2013-01-20 17:00:00,
2013-01-20 12:03:00,41.7,33.7,29.68,SW,236,0.0,3.0,73,0.00,,---,0.00,104.00,VWS V14.01,2013-01-20 17:03:00,
2013-01-20 12:08:00,41.6,33.6,29.67,NW,315,0.0,8.0,73,0.00,,---,0.00,84.00,VWS V14.01,2013-01-20 17:08:00,
2013-01-20 12:13:00,41.5,33.2,29.68,NW,304,0.0,8.0,72,0.00,,---,0.00,46.00,VWS V14.01,2013-01-20 17:13:00,
2013-01-20 12:18:00,41.3,33.0,29.67,East,94,2.0,8.0,72,0.00,,---,0.00,49.00,VWS V14.01,2013-01-20 17:18:00,
2013-01-20 12:23:00,41.2,32.9,29.68,SW,223,0.0,8.0,72,0.00,,---,0.00,44.00,VWS V14.01,2013-01-20 17:23:00,
2013-01-20 12:28:00,41.1,32.8,29.68,WSW,246,6.0,8.0,72,0.00,,---,0.00,54.00,VWS V14.01,2013-01-20 17:28:00,
2013-01-20 12:30:00,44.8,27.8,29.67,WSW,254,4.0,14.0,51,0.00,,---,0.00,480.00,VWS V14.01,2013-01-20 17:30:00,
2013-01-20 12:33:00,41.1,32.8,29.68,West,267,2.0,7.0,72,0.00,,---,0.00,46.00,VWS V14.01,2013-01-20 17:33:00,
2013-01-20 12:38:00,41.1,32.8,29.68,WSW,258,3.0,7.0,72,0.00,,---,0.00,74.00,VWS V14.01,2013-01-20 17:38:00,
2013-01-20 12:43:00,41.1,32.4,29.68,SW,218,0.0,7.0,71,0.00,,---,0.00,90.00,VWS V14.01,2013-01-20 17:43:00,
2013-01-20 12:48:00,41.2,32.5,29.67,West,267,2.0,7.0,71,0.00,,---,0.00,135.00,VWS V14.01,2013-01-20 17:48:00,
2013-01-20 12:53:00,41.4,32.7,29.67,WNW,288,3.0,7.0,71,0.00,,---,0.00,183.00,VWS V14.01,2013-01-20 17:53:00,
2013-01-20 12:58:00,41.9,32.8,29.67,West,264,0.0,7.0,70,0.00,,---,0.00,127.00,VWS V14.01,2013-01-20 17:58:00,
2013-01-20 13:00:00,47.4,23.7,29.68,WSW,248,5.0,11.0,39,0.00,,---,0.00,431.00,VWS V14.01,2013-01-20 18:00:00,
2013-01-20 13:03:00,42.4,32.6,29.67,NNW,331,0.0,5.0,68,0.00,,---,0.00,185.00,VWS V14.01,2013-01-20 18:03:00,
2013-01-20 13:08:00,42.7,32.2,29.67,WNW,284,2.0,6.0,66,0.00,,---,0.00,258.00,VWS V14.01,2013-01-20 18:08:00,
2013-01-20 13:13:00,43.0,31.7,29.67,West,281,5.0,7.0,64,0.00,,---,0.00,98.00,VWS V14.01,2013-01-20 18:13:00,
2013-01-20 13:18:00,43.0,30.9,29.67,WNW,292,0.0,9.0,62,0.00,,---,0.00,353.00,VWS V14.01,2013-01-20 18:18:00,
2013-01-20 13:23:00,43.4,29.2,29.67,West,264,2.0,14.0,57,0.00,,---,0.00,148.00,VWS V14.01,2013-01-20 18:23:00,
2013-01-20 13:28:00,44.5,28.5,29.67,SSE,149,0.0,14.0,53,0.00,,---,0.00,417.00,VWS V14.01,2013-01-20 18:28:00,
2013-01-20 13:30:00,44.8,18.8,29.71,ENE,69,0.0,12.0,35,0.00,,---,0.00,353.00,VWS V14.01,2013-01-20 18:30:00,
2013-01-20 13:33:00,45.4,27.4,29.67,SW,227,3.0,10.0,49,0.00,,---,0.00,457.00,VWS V14.01,2013-01-20 18:33:00,
2013-01-20 13:38:00,46.1,27.5,29.67,NW,311,3.0,10.0,48,0.00,,---,0.00,466.00,VWS V14.01,2013-01-20 18:38:00,
2013-01-20 13:43:00,46.7,27.0,29.67,West,259,4.0,11.0,46,0.00,,---,0.00,438.00,VWS V14.01,2013-01-20 18:43:00,
2013-01-20 13:48:00,46.9,26.1,29.68,West,274,5.0,11.0,44,0.00,,---,0.00,452.00,VWS V14.01,2013-01-20 18:48:00,
2013-01-20 13:53:00,47.0,25.1,29.68,NW,307,4.0,11.0,42,0.00,,---,0.00,432.00,VWS V14.01,2013-01-20 18:53:00,
2013-01-20 13:58:00,47.3,23.6,29.68,WSW,252,4.0,11.0,39,0.00,,---,0.00,427.00,VWS V14.01,2013-01-20 18:58:00,
2013-01-20 14:00:00,41.4,18.9,29.74,East,92,1.0,15.0,40,0.00,,---,0.00,169.00,VWS V14.01,2013-01-20 19:00:00,
2013-01-20 14:03:00,47.3,22.4,29.68,West,276,4.0,11.0,37,0.00,,---,0.00,425.00,VWS V14.01,2013-01-20 19:03:00,
2013-01-20 14:08:00,47.3,21.0,29.69,ESE,110,0.0,11.0,35,0.00,,---,0.00,404.00,VWS V14.01,2013-01-20 19:08:00,
2013-01-20 14:13:00,47.0,19.4,29.69,West,261,4.0,12.0,33,0.00,,---,0.00,397.00,VWS V14.01,2013-01-20 19:13:00,
2013-01-20 14:18:00,46.5,19.0,29.70,SW,231,3.0,12.0,33,0.00,,---,0.00,388.00,VWS V14.01,2013-01-20 19:18:00,
2013-01-20 14:23:00,45.8,19.0,29.70,WNW,293,6.0,12.0,34,0.00,,---,0.00,232.00,VWS V14.01,2013-01-20 19:23:00,
2013-01-20 14:28:00,44.9,18.2,29.71,SSW,199,4.0,12.0,34,0.00,,---,0.00,360.00,VWS V14.01,2013-01-20 19:28:00,
2013-01-20 14:30:00,40.1,20.0,29.77,ENE,65,0.0,17.0,44,0.00,,---,0.00,100.00,VWS V14.01,2013-01-20 19:30:00,
2013-01-20 14:33:00,44.2,19.0,29.71,SSE,161,1.0,7.0,36,0.00,,---,0.00,346.00,VWS V14.01,2013-01-20 19:33:00,
2013-01-20 14:38:00,43.6,19.1,29.71,North,351,3.0,9.0,37,0.00,,---,0.00,332.00,VWS V14.01,2013-01-20 19:38:00,
2013-01-20 14:43:00,43.1,19.2,29.72,NW,324,1.0,9.0,38,0.00,,---,0.00,320.00,VWS V14.01,2013-01-20 19:43:00,
2013-01-20 14:48:00,42.8,19.0,29.72,West,279,0.0,9.0,38,0.00,,---,0.00,308.00,VWS V14.01,2013-01-20 19:48:00,
2013-01-20 14:53:00,42.6,18.8,29.73,ENE,70,7.0,9.0,38,0.00,,---,0.00,229.00,VWS V14.01,2013-01-20 19:53:00,
2013-01-20 14:58:00,41.6,19.1,29.74,West,267,5.0,15.0,40,0.00,,---,0.00,128.00,VWS V14.01,2013-01-20 19:58:00,
2013-01-20 15:00:00,37.7,19.8,29.80,SW,232,2.0,11.0,48,0.00,,---,0.00,26.00,VWS V14.01,2013-01-20 20:00:00,
2013-01-20 15:03:00,41.1,18.6,29.74,SW,216,3.0,17.0,40,0.00,,---,0.00,114.00,VWS V14.01,2013-01-20 20:03:00,
2013-01-20 15:08:00,40.9,19.0,29.74,SSW,207,4.0,17.0,41,0.00,,---,0.00,105.00,VWS V14.01,2013-01-20 20:08:00,
2013-01-20 15:13:00,40.7,19.4,29.75,NNW,328,12.0,17.0,42,0.00,,---,0.00,83.00,VWS V14.01,2013-01-20 20:13:00,
2013-01-20 15:18:00,40.5,18.7,29.76,NW,325,2.0,17.0,41,0.00,,---,0.00,98.00,VWS V14.01,2013-01-20 20:18:00,
2013-01-20 15:23:00,40.4,19.1,29.76,NW,309,2.0,17.0,42,0.00,,---,0.00,114.00,VWS V14.01,2013-01-20 20:23:00,
2013-01-20 15:28:00,40.2,19.5,29.77,WSW,253,0.0,17.0,43,0.00,,---,0.00,76.00,VWS V14.01,2013-01-20 20:28:00,
2013-01-20 15:30:00,34.9,18.6,29.83,WNW,303,4.0,10.0,51,0.00,,---,0.00,12.00,VWS V14.01,2013-01-20 20:30:00,
2013-01-20 15:33:00,39.7,19.6,29.77,SE,143,3.0,11.0,44,0.00,,---,0.00,58.00,VWS V14.01,2013-01-20 20:33:00,
2013-01-20 15:38:00,39.4,19.8,29.78,NW,304,0.0,11.0,45,0.00,,---,0.00,63.00,VWS V14.01,2013-01-20 20:38:00,
2013-01-20 15:43:00,39.0,19.5,29.78,West,273,2.0,11.0,45,0.00,,---,0.00,32.00,VWS V14.01,2013-01-20 20:43:00,
2013-01-20 15:48:00,38.6,19.6,29.79,WNW,283,1.0,11.0,46,0.00,,---,0.00,32.00,VWS V14.01,2013-01-20 20:48:00,
2013-01-20 15:53:00,38.2,19.8,29.79,SW,219,2.0,11.0,47,0.00,,---,0.00,28.00,VWS V14.01,2013-01-20 20:53:00,
2013-01-20 15:58:00,37.8,19.9,29.80,East,84,3.0,11.0,48,0.00,,---,0.00,30.00,VWS V14.01,2013-01-20 20:58:00,
2013-01-20 16:00:00,33.4,18.1,29.85,North,355,3.0,7.0,53,0.00,,---,0.00,0.00,VWS V14.01,2013-01-20 21:00:00,
2013-01-20 16:03:00,37.4,20.5,29.81,WSW,244,6.0,7.0,50,0.00,,---,0.00,23.00,VWS V14.01,2013-01-20 21:03:00,
2013-01-20 16:08:00,36.8,19.5,29.81,NE,48,3.0,8.0,49,0.00,,---,0.00,21.00,VWS V14.01,2013-01-20 21:08:00,
2013-01-20 16:13:00,36.2,19.4,29.82,NNW,332,0.0,10.0,50,0.00,,---,0.00,18.00,VWS V14.01,2013-01-20 21:13:00,
2013-01-20 16:18:00,35.8,19.0,29.82,WNW,289,2.0,10.0,50,0.00,,---,0.00,18.00,VWS V14.01,2013-01-20 21:18:00,
2013-01-20 16:23:00,35.3,19.0,29.83,WSW,257,4.0,10.0,51,0.00,,---,0.00,16.00,VWS V14.01,2013-01-20 21:23:00,
2013-01-20 16:28:00,35.0,18.7,29.83,East,84,0.0,10.0,51,0.00,,---,0.00,14.00,VWS V14.01,2013-01-20 21:28:00,
2013-01-20 16:30:00,31.9,18.0,29.87,WNW,296,3.0,16.0,56,0.00,,---,0.00,0.00,VWS V14.01,2013-01-20 21:30:00,
2013-01-20 16:33:00,34.7,18.4,29.83,WNW,293,4.0,7.0,51,0.00,,---,0.00,12.00,VWS V14.01,2013-01-20 21:33:00,
2013-01-20 16:38:00,34.6,18.8,29.83,WSW,243,1.0,7.0,52,0.00,,---,0.00,11.00,VWS V14.01,2013-01-20 21:38:00,
2013-01-20 16:43:00,34.4,18.6,29.84,ENE,63,0.0,7.0,52,0.00,,---,0.00,7.00,VWS V14.01,2013-01-20 21:43:00,
2013-01-20 16:48:00,34.2,18.4,29.84,ESE,115,2.0,7.0,52,0.00,,---,0.00,5.00,VWS V14.01,2013-01-20 21:48:00,
2013-01-20 16:53:00,33.8,18.5,29.85,ENE,68,5.0,7.0,53,0.00,,---,0.00,0.00,VWS V14.01,2013-01-20 21:53:00,
2013-01-20 16:58:00,33.5,18.2,29.85,ESE,107,0.0,7.0,53,0.00,,---,0.00,0.00,VWS V14.01,2013-01-20 21:58:00,
2013-01-20 17:00:00,30.6,18.0,29.90,WNW,292,0.0,7.0,59,0.00,,---,0.00,0.00,VWS V14.01,2013-01-20 22:00:00,
2013-01-20 17:03:00,33.2,18.4,29.85,WNW,292,0.0,4.0,54,0.00,,---,0.00,0.00,VWS V14.01,2013-01-20 22:03:00,
2013-01-20 17:08:00,32.9,18.1,29.86,West,264,0.0,4.0,54,0.00,,---,0.00,0.00,VWS V14.01,2013-01-20 22:08:00,
2013-01-20 17:13:00,32.7,18.3,29.86,NNW,329,5.0,9.0,55,0.00,,---,0.00,0.00,VWS V14.01,2013-01-20 22:13:00,
2013-01-20 17:18:00,32.4,18.5,29.86,SSW,212,0.0,9.0,56,0.00,,---,0.00,0.00,VWS V14.01,2013-01-20 22:18:00,
2013-01-20 17:23:00,32.2,17.9,29.87,WSW,246,0.0,16.0,55,0.00,,---,0.00,0.00,VWS V14.01,2013-01-20 22:23:00,
2013-01-20 17:28:00,31.9,18.0,29.87,SE,136,0.0,16.0,56,0.00,,---,0.00,0.00,VWS V14.01,2013-01-20 22:28:00,
2013-01-20 17:30:00,31.9,18.0,29.87,West,270,2.0,17.0,56,0.00,,---,0.00,0.00,VWS V14.01,2013-01-20 22:30:00,
2013-01-20 17:33:00,31.8,17.9,29.87,North,360,0.0,6.0,56,0.00,,---,0.00,0.00,VWS V14.01,2013-01-20 22:33:00,
2013-01-20 18:00:00,30.6,18.0,29.90,WNW,292,0.0,7.0,59,0.00,,---,0.00,0.00,VWS V14.01,2013-01-20 23:00:00,
2013-01-20 18:05:00,30.4,18.2,29.90,West,277,3.0,3.0,60,0.00,,---,0.00,0.00,VWS V14.01,2013-01-20 23:05:00,
2013-01-20 18:10:00,30.3,17.7,29.90,East,98,1.0,5.0,59,0.00,,---,0.00,0.00,VWS V14.01,2013-01-20 23:10:00,
2013-01-20 18:15:00,30.2,17.2,29.90,WNW,286,0.0,5.0,58,0.00,,---,0.00,0.00,VWS V14.01,2013-01-20 23:15:00,
2013-01-20 18:20:00,30.1,16.7,29.90,ESE,122,0.0,6.0,57,0.00,,---,0.00,0.00,VWS V14.01,2013-01-20 23:20:00,
2013-01-20 18:25:00,29.9,16.5,29.91,WSW,254,0.0,6.0,57,0.00,,---,0.00,0.00,VWS V14.01,2013-01-20 23:25:00,
2013-01-20 18:30:00,29.7,15.9,29.91,WSW,254,0.0,0.0,56,0.00,,---,0.00,0.00,VWS V14.01,2013-01-20 23:30:00,
2013-01-20 18:35:00,29.4,16.1,29.91,NNW,340,0.0,1.0,57,0.00,,---,0.00,0.00,VWS V14.01,2013-01-20 23:35:00,
2013-01-20 18:40:00,29.3,16.0,29.92,NNE,22,0.0,1.0,57,0.00,,---,0.00,0.00,VWS V14.01,2013-01-20 23:40:00,
2013-01-20 18:45:00,29.0,15.7,29.92,NW,316,1.0,8.0,57,0.00,,---,0.00,0.00,VWS V14.01,2013-01-20 23:45:00,
2013-01-20 18:50:00,28.9,15.6,29.93,ENE,64,0.0,8.0,57,0.00,,---,0.00,0.00,VWS V14.01,2013-01-20 23:50:00,
2013-01-20 18:55:00,28.8,15.1,29.93,SSW,207,0.0,8.0,56,0.00,,---,0.00,0.00,VWS V14.01,2013-01-20 23:55:00,
2013-01-20 19:00:00,28.6,15.3,29.93,WNW,282,2.0,3.0,57,0.00,,---,0.00,0.00,VWS V14.01,2013-01-21 00:00:00,
2013-01-20 19:05:00,28.4,15.1,29.94,NNE,20,2.0,6.0,57,0.00,,---,0.00,0.00,VWS V14.01,2013-01-21 00:05:00,
2013-01-20 19:10:00,28.3,15.0,29.94,SE,134,0.0,7.0,57,0.00,,---,0.00,0.00,VWS V14.01,2013-01-21 00:10:00,
2013-01-20 19:15:00,28.3,14.6,29.94,NW,325,0.0,7.0,56,0.00,,---,0.00,0.00,VWS V14.01,2013-01-21 00:15:00,
2013-01-20 19:20:00,28.2,14.5,29.94,WNW,285,0.0,7.0,56,0.00,,---,0.00,0.00,VWS V14.01,2013-01-21 00:20:00,
2013-01-20 19:25:00,28.1,14.4,29.95,ENE,61,2.0,7.0,56,0.00,,---,0.00,0.00,VWS V14.01,2013-01-21 00:25:00,
2013-01-20 19:30:00,28.0,14.3,29.95,ENE,61,0.0,0.0,56,0.00,,---,0.00,0.00,VWS V14.01,2013-01-21 00:30:00,
2013-01-20 19:35:00,28.0,14.3,29.95,NNE,30,0.0,7.0,56,0.00,,---,0.00,0.00,VWS V14.01,2013-01-21 00:35:00,
2013-01-20 19:40:00,27.9,14.2,29.96,ENE,61,4.0,7.0,56,0.00,,---,0.00,0.00,VWS V14.01,2013-01-21 00:40:00,
2013-01-20 19:45:00,27.9,13.8,29.96,NNW,333,0.0,10.0,55,0.00,,---,0.00,0.00,VWS V14.01,2013-01-21 00:45:00,
2013-01-20 19:50:00,27.9,13.4,29.96,WNW,287,2.0,10.0,54,0.00,,---,0.00,0.00,VWS V14.01,2013-01-21 00:50:00,
2013-01-20 19:55:00,27.8,12.9,29.97,West,273,3.0,12.0,53,0.00,,---,0.00,0.00,VWS V14.01,2013-01-21 00:55:00,
2013-01-20 20:00:00,27.8,13.3,29.97,SSW,211,8.0,8.0,54,0.00,,---,0.00,0.00,VWS V14.01,2013-01-21 01:00:00,
2013-01-20 20:05:00,27.6,13.1,29.97,WNW,296,0.0,12.0,54,0.00,,---,0.00,0.00,VWS V14.01,2013-01-21 01:05:00,
2013-01-20 20:10:00,27.6,13.1,29.97,WNW,296,1.0,12.0,54,0.00,,---,0.00,0.00,VWS V14.01,2013-01-21 01:10:00,
2013-01-20 20:15:00,27.4,13.4,29.97,WNW,297,0.0,12.0,55,0.00,,---,0.00,0.00,VWS V14.01,2013-01-21 01:15:00,
2013-01-20 20:20:00,27.3,13.3,29.97,West,265,0.0,12.0,55,0.00,,---,0.00,0.00,VWS V14.01,2013-01-21 01:20:00,
2013-01-20 20:25:00,27.1,13.1,29.97,SW,219,0.0,12.0,55,0.00,,---,0.00,0.00,VWS V14.01,2013-01-21 01:25:00,
2013-01-20 20:30:00,27.0,13.0,29.98,NE,36,1.0,6.0,55,0.00,,---,0.00,0.00,VWS V14.01,2013-01-21 01:30:00,
2013-01-20 20:35:00,27.0,12.6,29.98,West,281,3.0,12.0,54,0.00,,---,0.00,0.00,VWS V14.01,2013-01-21 01:35:00,
2013-01-20 20:40:00,27.0,12.2,29.98,SW,234,4.0,12.0,53,0.00,,---,0.00,0.00,VWS V14.01,2013-01-21 01:40:00,
2013-01-20 20:45:00,26.8,12.0,29.98,North,5,0.0,12.0,53,0.00,,---,0.00,0.00,VWS V14.01,2013-01-21 01:45:00,
2013-01-20 20:50:00,26.7,11.9,29.98,ENE,68,2.0,12.0,53,0.00,,---,0.00,0.00,VWS V14.01,2013-01-21 01:50:00,
2013-01-20 20:55:00,26.7,12.3,29.98,WSW,254,5.0,12.0,54,0.00,,---,0.00,0.00,VWS V14.01,2013-01-21 01:55:00,
2013-01-20 21:00:00,26.6,11.8,29.98,NW,309,5.0,9.0,53,0.00,,---,0.00,0.00,VWS V14.01,2013-01-21 02:00:00,
2013-01-20 21:06:00,26.6,11.4,29.99,WNW,292,11.0,14.0,52,0.00,,---,0.00,0.00,VWS V14.01,2013-01-21 02:06:00,
2013-01-20 21:11:00,26.6,11.4,29.99,NNW,329,11.0,14.0,52,0.00,,---,0.00,0.00,VWS V14.01,2013-01-21 02:11:00,
2013-01-20 21:16:00,26.5,11.3,29.99,WNW,297,2.0,16.0,52,0.00,,---,0.00,0.00,VWS V14.01,2013-01-21 02:16:00,
2013-01-20 21:20:00,26.4,11.2,30.00,NNW,333,4.0,16.0,52,0.00,,---,0.00,0.00,VWS V14.01,2013-01-21 02:20:00,
2013-01-20 21:25:00,26.3,11.5,30.00,WNW,288,6.0,16.0,53,0.00,,---,0.00,0.00,VWS V14.01,2013-01-21 02:25:00,
2013-01-20 21:30:00,26.2,11.0,30.00,WNW,290,15.0,15.0,52,0.00,,---,0.00,0.00,VWS V14.01,2013-01-21 02:30:00,
2013-01-20 21:35:00,26.1,11.3,30.01,WSW,256,4.0,15.0,53,0.00,,---,0.00,0.00,VWS V14.01,2013-01-21 02:35:00,
2013-01-20 21:40:00,26.0,11.6,30.00,West,281,3.0,15.0,54,0.00,,---,0.00,0.00,VWS V14.01,2013-01-21 02:40:00,
2013-01-20 21:45:00,26.0,11.6,30.01,West,267,1.0,15.0,54,0.00,,---,0.00,0.00,VWS V14.01,2013-01-21 02:45:00,
2013-01-20 21:50:00,25.8,11.9,30.01,WNW,294,6.0,15.0,55,0.00,,---,0.00,0.00,VWS V14.01,2013-01-21 02:50:00,
2013-01-20 21:55:00,25.8,12.3,30.00,NW,317,1.0,15.0,56,0.00,,---,0.00,0.00,VWS V14.01,2013-01-21 02:55:00,
2013-01-20 22:00:00,25.7,12.6,30.01,WNW,284,0.0,3.0,57,0.00,,---,0.00,0.00,VWS V14.01,2013-01-21 03:00:00,
2013-01-20 22:05:00,25.6,12.9,30.01,WSW,257,1.0,7.0,58,0.00,,---,0.00,0.00,VWS V14.01,2013-01-21 03:05:00,
2013-01-20 22:10:00,25.6,12.9,30.01,West,269,4.0,7.0,58,0.00,,---,0.00,0.00,VWS V14.01,2013-01-21 03:10:00,
2013-01-20 22:15:00,25.6,12.9,30.01,WSW,258,0.0,7.0,58,0.00,,---,0.00,0.00,VWS V14.01,2013-01-21 03:15:00,
2013-01-20 22:20:00,25.5,12.8,30.01,West,266,0.0,7.0,58,0.00,,---,0.00,0.00,VWS V14.01,2013-01-21 03:20:00,
2013-01-20 22:25:00,25.4,13.1,30.01,West,266,0.0,7.0,59,0.00,,---,0.00,0.00,VWS V14.01,2013-01-21 03:25:00,
2013-01-20 22:30:00,25.2,12.9,30.02,West,281,0.0,2.0,59,0.00,,---,0.00,0.00,VWS V14.01,2013-01-21 03:30:00,
2013-01-20 22:35:00,25.1,12.4,30.02,West,277,3.0,4.0,58,0.00,,---,0.00,0.00,VWS V14.01,2013-01-21 03:35:00,
2013-01-20 22:40:00,25.0,12.3,30.02,West,270,0.0,5.0,58,0.00,,---,0.00,0.00,VWS V14.01,2013-01-21 03:40:00,
2013-01-20 22:45:00,25.0,12.3,30.01,WSW,258,1.0,5.0,58,0.00,,---,0.00,0.00,VWS V14.01,2013-01-21 03:45:00,
2013-01-20 22:50:00,25.0,12.3,30.02,WNW,286,3.0,10.0,58,0.00,,---,0.00,0.00,VWS V14.01,2013-01-21 03:50:00,
2013-01-20 22:55:00,25.1,12.4,30.02,West,267,0.0,10.0,58,0.00,,---,0.00,0.00,VWS V14.01,2013-01-21 03:55:00,
2013-01-20 23:00:00,25.1,12.4,30.02,WNW,292,3.0,4.0,58,0.00,,---,0.00,0.00,VWS V14.01,2013-01-21 04:00:00,
2013-01-20 23:05:00,25.2,12.1,30.02,West,276,7.0,9.0,57,0.00,,---,0.00,0.00,VWS V14.01,2013-01-21 04:05:00,
2013-01-20 23:10:00,25.3,12.2,30.02,West,273,8.0,11.0,57,0.00,,---,0.00,0.00,VWS V14.01,2013-01-21 04:10:00,
2013-01-20 23:15:00,25.4,12.3,30.02,West,275,0.0,11.0,57,0.00,,---,0.00,0.00,VWS V14.01,2013-01-21 04:15:00,
2013-01-20 23:20:00,25.5,12.8,30.02,WSW,237,4.0,11.0,58,0.00,,---,0.00,0.00,VWS V14.01,2013-01-21 04:20:00,
2013-01-20 23:25:00,25.5,13.2,30.02,WNW,299,2.0,11.0,59,0.00,,---,0.00,0.00,VWS V14.01,2013-01-21 04:25:00,
2013-01-20 23:30:00,25.4,13.8,30.03,West,273,2.0,3.0,61,0.00,,---,0.00,0.00,VWS V14.01,2013-01-21 04:30:00,
2013-01-20 23:35:00,25.4,14.2,30.03,WSW,250,7.0,10.0,62,0.00,,---,0.00,0.00,VWS V14.01,2013-01-21 04:35:00,
2013-01-20 23:40:00,25.2,14.4,30.02,West,271,1.0,10.0,63,0.00,,---,0.00,0.00,VWS V14.01,2013-01-21 04:40:00,
2013-01-20 23:45:00,25.1,13.9,30.02,West,271,7.0,10.0,62,0.00,,---,0.00,0.00,VWS V14.01,2013-01-21 04:45:00,
2013-01-20 23:50:00,24.9,13.4,30.02,WSW,241,8.0,13.0,61,0.00,,---,0.00,0.00,VWS V14.01,2013-01-21 04:50:00,
2013-01-20 23:55:00,24.8,12.9,30.02,NW,304,3.0,13.0,60,0.00,,---,0.00,0.00,VWS V14.01,2013-01-21 04:55:00,